• In Romania
  • List of Countries
  • For 7 days
  • Water Temperature
  • Satellite Maps
  • Weather Map
  • Weather Widgets
  • user-avatar
    Login

    Hourly Weather Krivoy Kust

    Today, 26 September, Wednesday

    Time Temperature Precipitation Wind Pressure Humidity
    00:00 +5°C° 0 mm 4 mps 744 mmHg 77%
    01:00 +5°C° 0 mm 4 mps 744 mmHg 79%
    02:00 +4°C° 0 mm 4 mps 745 mmHg 81%
    03:00 +4°C° 0 mm 4 mps 745 mmHg 84%
    04:00 +4°C° 0 mm 4 mps 746 mmHg 85%
    05:00 +3°C° 0 mm 4 mps 746 mmHg 87%
    06:00 +3°C° 0 mm 4 mps 747 mmHg 88%
    07:00 +4°C° 0 mm 4 mps 747 mmHg 84%
    08:00 +4°C° 0 mm 4 mps 748 mmHg 80%
    09:00 +5°C° 0 mm 4 mps 749 mmHg 76%
    10:00 +6°C° 0 mm 4 mps 749 mmHg 70%
    11:00 +7°C° 0 mm 4 mps 749 mmHg 64%
    12:00 +8°C° 0 mm 5 mps 749 mmHg 57%
    13:00 +9°C° 0 mm 5 mps 749 mmHg 55%
    14:00 +9°C° 0 mm 5 mps 749 mmHg 53%
    15:00 +9°C° 0 mm 5 mps 749 mmHg 51%
    16:00 +8°C° 0 mm 4 mps 749 mmHg 55%
    17:00 +8°C° 0 mm 4 mps 749 mmHg 59%
    18:00 +8°C° 0 mm 3 mps 749 mmHg 62%
    19:00 +6°C° 0 mm 4 mps 749 mmHg 64%
    20:00 +6°C° 0 mm 4 mps 748 mmHg 65%
    21:00 +5°C° 0 mm 4 mps 748 mmHg 67%
    22:00 +5°C° 0 mm 5 mps 748 mmHg 67%
    23:00 +4°C° 0 mm 6 mps 747 mmHg 67%

    Tomorrow, 27 September, Thursday

    Time Temperature Precipitation Wind Pressure Humidity
    00:00 +5°C° 0 mm 6 mps 746 mmHg 67%
    01:00 +5°C° 0 mm 7 mps 746 mmHg 65%
    02:00 +5°C° 0 mm 8 mps 745 mmHg 63%
    03:00 +5°C° 0 mm 8 mps 744 mmHg 61%
    04:00 +5°C° 0.6 mm 9 mps 743 mmHg 64%
    05:00 +3°C° 0.6 mm 10 mps 742 mmHg 68%
    06:00 +3°C° 0.6 mm 11 mps 740 mmHg 71%
    07:00 +3°C° 0.6 mm 11 mps 740 mmHg 74%
    08:00 +3°C° 0.6 mm 11 mps 739 mmHg 77%
    09:00 +4°C° 0.6 mm 11 mps 738 mmHg 80%
    10:00 +4°C° 0.4 mm 11 mps 738 mmHg 81%
    11:00 +6°C° 0.4 mm 10 mps 738 mmHg 82%
    12:00 +6°C° 0.4 mm 10 mps 738 mmHg 83%
    13:00 +7°C° 0.1 mm 10 mps 738 mmHg 80%
    14:00 +8°C° 0.1 mm 9 mps 738 mmHg 77%
    15:00 +8°C° 0.1 mm 9 mps 738 mmHg 74%
    16:00 +9°C° 0 mm 8 mps 738 mmHg 73%
    17:00 +9°C° 0 mm 7 mps 739 mmHg 73%
    18:00 +8°C° 0 mm 5 mps 739 mmHg 72%
    19:00 +8°C° 0 mm 5 mps 739 mmHg 75%
    20:00 +7°C° 0 mm 5 mps 740 mmHg 78%
    21:00 +7°C° 0 mm 5 mps 740 mmHg 80%
    22:00 +7°C° 0 mm 5 mps 740 mmHg 81%
    23:00 +7°C° 0 mm 5 mps 741 mmHg 81%

    Day after tomorrow, 28 September, Friday

    Time Temperature Precipitation Wind Pressure Humidity
    00:00 +6°C° 0 mm 5 mps 741 mmHg 81%
    01:00 +6°C° 0 mm 5 mps 741 mmHg 84%
    02:00 +6°C° 0 mm 5 mps 740 mmHg 86%
    03:00 +6°C° 0 mm 5 mps 740 mmHg 88%
    04:00 +5°C° 0 mm 6 mps 740 mmHg 87%
    05:00 +5°C° 0 mm 6 mps 739 mmHg 86%
    06:00 +6°C° 0 mm 7 mps 739 mmHg 85%
    07:00 +7°C° 0 mm 8 mps 738 mmHg 83%
    08:00 +7°C° 0 mm 9 mps 738 mmHg 81%
    09:00 +8°C° 0 mm 10 mps 737 mmHg 79%
    10:00 +9°C° 0 mm 10 mps 737 mmHg 80%
    11:00 +9°C° 0 mm 10 mps 737 mmHg 81%
    12:00 +11°C° 0 mm 10 mps 736 mmHg 82%
    13:00 +11°C° 0 mm 10 mps 736 mmHg 81%
    14:00 +12°C° 0 mm 10 mps 736 mmHg 80%
    15:00 +12°C° 0 mm 10 mps 736 mmHg 79%
    16:00 +12°C° 0.5 mm 9 mps 736 mmHg 81%
    17:00 +12°C° 0.5 mm 9 mps 736 mmHg 83%
    18:00 +12°C° 0.5 mm 8 mps 736 mmHg 85%
    19:00 +11°C° 0.2 mm 7 mps 737 mmHg 84%
    20:00 +9°C° 0.2 mm 6 mps 738 mmHg 83%
    21:00 +8°C° 0.2 mm 5 mps 739 mmHg 82%
    22:00 +7°C° 0 mm 4 mps 740 mmHg 84%
    23:00 +5°C° 0 mm 3 mps 741 mmHg 85%

    29 September, Saturday

    Time Temperature Precipitation Wind Pressure Humidity
    00:00 +5°C° 0 mm 2 mps 742 mmHg 87%
    01:00 +5°C° 0 mm 2 mps 742 mmHg 87%
    02:00 +5°C° 0 mm 2 mps 743 mmHg 88%
    03:00 +4°C° 0 mm 2 mps 743 mmHg 88%
    04:00 +4°C° 0 mm 2 mps 744 mmHg 88%
    05:00 +4°C° 0 mm 2 mps 744 mmHg 88%
    06:00 +4°C° 0 mm 2 mps 745 mmHg 89%
    07:00 +5°C° 0 mm 2 mps 745 mmHg 84%
    08:00 +6°C° 0 mm 2 mps 745 mmHg 80%
    09:00 +7°C° 0 mm 2 mps 746 mmHg 76%
    10:00 +8°C° 0 mm 2 mps 746 mmHg 70%
    11:00 +9°C° 0 mm 2 mps 746 mmHg 65%
    12:00 +10°C° 0 mm 2 mps 747 mmHg 60%
    13:00 +12°C° 0 mm 2 mps 747 mmHg 58%
    14:00 +12°C° 0 mm 2 mps 747 mmHg 56%
    15:00 +12°C° 0 mm 2 mps 747 mmHg 55%
    16:00 +10°C° 0 mm 2 mps 747 mmHg 58%
    17:00 +11°C° 0 mm 1 mps 747 mmHg 62%
    18:00 +10°C° 0 mm 1 mps 747 mmHg 65%
    19:00 +10°C° 0 mm 1 mps 748 mmHg 66%
    20:00 +9°C° 0 mm 1 mps 748 mmHg 67%
    21:00 +9°C° 0 mm 1 mps 748 mmHg 68%
    22:00 +8°C° 0 mm 1 mps 749 mmHg 68%
    23:00 +8°C° 0 mm 1 mps 749 mmHg 68%

    30 September, Sunday

    Time Temperature Precipitation Wind Pressure Humidity
    00:00 +8°C° 0 mm 1 mps 749 mmHg 68%
    01:00 +7°C° 0 mm 1 mps 749 mmHg 68%
    02:00 +6°C° 0 mm 1 mps 749 mmHg 69%
    03:00 +6°C° 0 mm 1 mps 750 mmHg 69%
    04:00 +5°C° 0 mm 1 mps 750 mmHg 68%
    05:00 +5°C° 0 mm 1 mps 750 mmHg 67%
    06:00 +5°C° 0 mm 1 mps 751 mmHg 67%
    07:00 +6°C° 0 mm 1 mps 751 mmHg 64%
    08:00 +7°C° 0 mm 1 mps 751 mmHg 61%
    09:00 +8°C° 0 mm 1 mps 751 mmHg 58%
    10:00 +9°C° 0 mm 1 mps 751 mmHg 55%
    11:00 +10°C° 0 mm 1 mps 751 mmHg 52%
    12:00 +11°C° 0 mm 1 mps 751 mmHg 49%
    13:00 +12°C° 0 mm 2 mps 751 mmHg 48%
    14:00 +12°C° 0 mm 2 mps 751 mmHg 48%
    15:00 +12°C° 0 mm 2 mps 750 mmHg 47%
    16:00 +10°C° 0 mm 2 mps 750 mmHg 52%
    17:00 +10°C° 0 mm 1 mps 750 mmHg 56%
    18:00 +10°C° 0 mm 1 mps 750 mmHg 61%
    19:00 +9°C° 0 mm 1 mps 750 mmHg 63%
    20:00 +8°C° 0 mm 1 mps 750 mmHg 66%
    21:00 +8°C° 0 mm 1 mps 750 mmHg 68%
    22:00 +7°C° 0 mm 2 mps 750 mmHg 70%
    23:00 +6°C° 0 mm 2 mps 750 mmHg 73%

    1 October, Monday

    Time Temperature Precipitation Wind Pressure Humidity
    00:00 +6°C° 0 mm 2 mps 750 mmHg 75%
    01:00 +6°C° 0 mm 2 mps 750 mmHg 77%
    02:00 +5°C° 0 mm 2 mps 750 mmHg 79%
    03:00 +5°C° 0 mm 2 mps 750 mmHg 81%
    04:00 +5°C° 0 mm 2 mps 749 mmHg 82%
    05:00 +4°C° 0 mm 2 mps 749 mmHg 82%
    06:00 +4°C° 0 mm 2 mps 749 mmHg 83%
    07:00 +5°C° 0 mm 2 mps 749 mmHg 78%
    08:00 +7°C° 0 mm 3 mps 749 mmHg 73%
    09:00 +8°C° 0 mm 3 mps 749 mmHg 68%
    10:00 +9°C° 0 mm 3 mps 749 mmHg 63%
    11:00 +10°C° 0 mm 4 mps 749 mmHg 57%
    12:00 +12°C° 0 mm 4 mps 749 mmHg 52%
    13:00 +12°C° 0 mm 4 mps 749 mmHg 51%
    14:00 +12°C° 0 mm 4 mps 748 mmHg 49%
    15:00 +13°C° 0 mm 4 mps 748 mmHg 48%
    16:00 +12°C° 0 mm 3 mps 748 mmHg 53%
    17:00 +11°C° 0 mm 3 mps 748 mmHg 58%
    18:00 +9°C° 0 mm 2 mps 747 mmHg 63%
    19:00 +9°C° 0 mm 2 mps 748 mmHg 65%
    20:00 +8°C° 0 mm 2 mps 748 mmHg 67%
    21:00 +8°C° 0 mm 2 mps 748 mmHg 68%
    22:00 +7°C° 0 mm 2 mps 748 mmHg 69%
    23:00 +7°C° 0 mm 2 mps 748 mmHg 70%
    Show more